FENGYUN 1C DEB, 31987

Orbit data source: Space-Track

FENGYUN 1C DEB, 31987 is space debris in SSO originally from a launch on Mon, 10 May 1999 UTC launched from the Taiyaun Space Center, China (TSC). Fengyun 1C debris stems from the Chinese weather satellite Fengyun-1C, which was intentionally destroyed by a Chinese anti-satellite missile in 2007. This event dramatically increased the amount of space debris, with thousands of trackable fragments posing hazards to satellites and human spaceflight. The Fengyun 1C debris cloud has become a focal point in discussions about space sustainability and the need for international regulations to prevent the creation of new debris.

Loading next visibility...
Identifier
31987, 1999-025CPQ
Orbit
SSO
Country
Flag of CNCN / PRC
Related business
Manufacturer
Unknown
Mission
Spacecraft
Bus & Motor
Unknown
Mass
Unknown
Launch date (UTC)
1999-05-10 (27 years ago)
Launch vehicle
Unknown
Launch site
Taiyaun Space Center, China (TSC)
Object type
Payload
Rocket body
Debris
Shape & HBR
Unknown shape, 0.1 m
Radar Cross Section
Small (<0.1 m²)

Expand to show TLE details & history
Last TLE update: 14 hours ago

TLE from 14 hours ago
0 FENGYUN 1C DEB
1 31987U 99025CPQ 26062.90277574  .00005360  00000-0  15054-2 0  9991
2 31987  99.0469  46.7364 0049861 278.3810 111.4746 14.45669716975424
Epoch: 2026-03-03T21:39Z
TLE epoch observation values (Epoch: 2026-03-03T21:39:59.823Z)
Latitude
30.02153°
Longitude
-85.18889°
Altitude
756.744 km
Speed
7.472 km/s
True Right ascension
02h 45m 56s
True Declination
29° 52' 22"
Sunlit
Object was in daylight at epoch
Visualization orbit readout
Latitude
Unknown
Longitude
Unknown
Altitude
Unknown
Speed
Unknown
Apparent Right ascension
Unknown
Apparent Declination
Unknown
Sunlit
N/A
Visualization observer readout
Local Sidereal Time
15:27:55
Azimuth
Unknown
Elevation
Unknown
Doppler factor
Unknown
Orbital elements
Apogee altitude
772.445 km
Perigee altitude
701.491 km
Semi-major axis
7,115.105 km
Eccentricity
0.00499
Inclination
99.0469°
RAAN
46.7364°
Arg. of periapsis
278.381°
True anomaly
112.00508°
Mean anomaly
111.4746°
Eccentric anomaly
111.73996°
Mean motion
3.61636 °/min
Orbital period
99.55 mins
BSTAR
0.0015054
Loading maneuver chart data...
Computing Atmospheric mass density...

Documentation

Showing up to 5 results
|